Total_Precipitation_Accumulation
0.09 0.16 0.18 0.19 0.19 0.16 0.13 0.10 0.16 0.14 0.21 0.20 0.15 0.15 0.16 0.17 0.18 0.18 0.17 0.13 0.11 0.14 0.19 0.22 0.26 0.34 0.35 0.31 0.26 0.30 0.42 0.48 0.54 0.49 0.40 0.36 0.33 0.28 0.26 0.26 0.27 0.31 0.36 0.42
0.11 0.14 0.18 0.21 0.21 0.15 0.10 0.08 0.08 0.08 0.11 0.11 0.14 0.18 0.22 0.22 0.19 0.17 0.15 0.11 0.11 0.15 0.20 0.20 0.20 0.20 0.17 0.16 0.16 0.20 0.27 0.33 0.40 0.43 0.37 0.31 0.27 0.24 0.24 0.26 0.30 0.34 0.37 0.42
0.16 0.16 0.18 0.26 0.24 0.17 0.10 0.09 0.11 0.14 0.13 0.12 0.13 0.16 0.20 0.21 0.19 0.18 0.19 0.11 0.09 0.12 0.13 0.10 0.10 0.10 0.11 0.13 0.18 0.24 0.30 0.35 0.44 0.46 0.43 0.37 0.30 0.28 0.28 0.30 0.32 0.33 0.32 0.31
0.19 0.24 0.35 0.24 0.18 0.18 0.17 0.16 0.16 0.19 0.17 0.18 0.19 0.22 0.24 0.26 0.23 0.19 0.17 0.13 0.08 0.08 0.09 0.08 0.08 0.10 0.15 0.21 0.27 0.31 0.37 0.43 0.51 0.55 0.49 0.44 0.43 0.44 0.44 0.43 0.41 0.39 0.34 0.31
0.29 0.33 0.33 0.27 0.18 0.20 0.24 0.26 0.22 0.25 0.24 0.25 0.26 0.27 0.26 0.22 0.19 0.17 0.13 0.14 0.14 0.11 0.12 0.13 0.12 0.13 0.21 0.29 0.34 0.41 0.47 0.56 0.61 0.67 0.65 0.62 0.63 0.61 0.63 0.60 0.53 0.48 0.43 0.43
0.35 0.39 0.40 0.33 0.26 0.25 0.29 0.52 0.42 0.37 0.34 0.29 0.30 0.34 0.30 0.25 0.27 0.25 0.18 0.15 0.15 0.13 0.15 0.16 0.18 0.24 0.33 0.36 0.40 0.46 0.53 0.65 0.77 0.83 0.85 0.84 0.86 0.84 0.78 0.74 0.65 0.58 0.52 0.53
0.46 0.44 0.42 0.38 0.35 0.32 0.50 0.65 0.47 0.37 0.36 0.35 0.42 0.42 0.40 0.33 0.30 0.28 0.21 0.21 0.18 0.16 0.20 0.25 0.31 0.39 0.47 0.54 0.61 0.60 0.63 0.70 0.82 0.91 0.96 1.01 1.08 1.04 0.97 0.91 0.87 0.83 0.74 0.71
0.53 0.63 0.65 0.49 0.48 0.61 0.69 0.57 0.59 0.53 0.50 0.48 0.44 0.36 0.33 0.32 0.30 0.28 0.25 0.26 0.26 0.26 0.31 0.35 0.41 0.50 0.59 0.65 0.63 0.67 0.72 0.78 0.82 0.87 0.86 0.91 1.08 1.11 1.10 1.09 1.02 0.97 0.94 0.82
0.64 0.71 0.65 0.53 0.57 0.66 0.69 0.68 0.63 0.60 0.54 0.48 0.44 0.37 0.29 0.24 0.24 0.23 0.22 0.23 0.24 0.28 0.40 0.49 0.57 0.64 0.72 0.69 0.73 0.75 0.80 0.88 0.94 0.93 0.95 1.02 1.07 1.10 1.12 1.17 1.13 1.04 1.01 0.94
0.74 0.77 0.74 0.62 0.51 0.46 0.50 0.56 0.56 0.52 0.50 0.45 0.41 0.39 0.34 0.28 0.21 0.20 0.20 0.19 0.21 0.25 0.34 0.42 0.50 0.56 0.68 0.76 0.84 0.88 0.94 0.99 1.04 1.09 1.06 1.06 1.14 1.18 1.20 1.24 1.28 1.22 1.14 1.07
0.77 0.71 0.57 0.63 0.65 0.58 0.59 0.66 0.65 0.54 0.50 0.50 0.45 0.41 0.33 0.30 0.26 0.21 0.19 0.18 0.21 0.27 0.33 0.40 0.47 0.54 0.62 0.69 0.80 0.87 0.93 0.97 0.99 1.04 1.08 1.12 1.15 1.18 1.14 1.17 1.15 1.13 1.09 1.08
0.78 0.73 0.66 0.63 0.58 0.57 0.61 0.61 0.62 0.63 0.57 0.44 0.39 0.41 0.35 0.30 0.27 0.26 0.25 0.25 0.28 0.31 0.35 0.39 0.47 0.58 0.65 0.74 0.86 0.97 1.03 1.05 1.00 0.98 1.04 1.09 1.14 1.13 1.02 0.95 0.91 0.88 0.88 0.89
0.61 0.55 0.54 0.52 0.51 0.44 0.40 0.41 0.42 0.40 0.38 0.35 0.33 0.31 0.29 0.29 0.30 0.28 0.27 0.28 0.30 0.33 0.34 0.39 0.44 0.54 0.61 0.71 0.84 0.96 1.03 1.04 1.00 0.97 1.02 1.04 1.07 1.12 1.13 1.05 0.92 0.84 0.79 0.75
0.43 0.39 0.38 0.37 0.36 0.36 0.35 0.33 0.29 0.23 0.19 0.20 0.24 0.26 0.26 0.28 0.28 0.27 0.28 0.30 0.30 0.30 0.31 0.35 0.42 0.48 0.55 0.67 0.79 0.87 0.93 0.94 0.95 0.97 1.00 1.05 1.05 1.07 1.12 1.21 1.20 1.06 0.87 0.77
0.43 0.42 0.41 0.32 0.27 0.29 0.30 0.27 0.23 0.19 0.16 0.15 0.14 0.15 0.15 0.16 0.18 0.20 0.21 0.23 0.27 0.30 0.33 0.39 0.47 0.52 0.60 0.73 0.82 0.84 0.86 0.85 0.84 0.86 0.89 0.93 0.91 0.92 0.98 1.07 1.14 1.07 0.92 0.76
0.47 0.42 0.37 0.32 0.34 0.35 0.31 0.28 0.25 0.22 0.19 0.18 0.18 0.17 0.15 0.15 0.18 0.20 0.21 0.26 0.36 0.39 0.43 0.48 0.54 0.58 0.68 0.77 0.82 0.83 0.78 0.75 0.74 0.76 0.74 0.73 0.73 0.77 0.84 0.92 0.98 0.94 0.87 0.77
0.48 0.42 0.37 0.35 0.34 0.30 0.28 0.27 0.25 0.23 0.18 0.17 0.17 0.17 0.17 0.18 0.22 0.26 0.28 0.31 0.37 0.41 0.46 0.52 0.55 0.58 0.71 0.81 0.84 0.84 0.77 0.69 0.64 0.65 0.65 0.65 0.69 0.73 0.77 0.79 0.85 0.81 0.74 0.62
0.41 0.39 0.39 0.37 0.32 0.28 0.27 0.25 0.25 0.26 0.23 0.21 0.19 0.19 0.21 0.27 0.37 0.43 0.44 0.44 0.44 0.44 0.44 0.48 0.54 0.60 0.71 0.83 0.87 0.86 0.77 0.67 0.59 0.55 0.58 0.59 0.61 0.68 0.74 0.75 0.73 0.70 0.65 0.53
0.33 0.36 0.37 0.37 0.38 0.38 0.36 0.32 0.29 0.28 0.25 0.24 0.25 0.26 0.29 0.36 0.48 0.53 0.53 0.56 0.64 0.69 0.61 0.54 0.55 0.56 0.64 0.79 0.91 0.92 0.79 0.66 0.56 0.51 0.52 0.52 0.55 0.64 0.72 0.70 0.64 0.60 0.56 0.52
0.38 0.41 0.46 0.48 0.50 0.51 0.48 0.42 0.37 0.33 0.29 0.27 0.29 0.31 0.36 0.43 0.53 0.60 0.61 0.60 0.64 0.75 0.77 0.71 0.60 0.53 0.57 0.72 0.90 0.87 0.78 0.69 0.59 0.49 0.49 0.54 0.55 0.60 0.62 0.61 0.55 0.50 0.49 0.48
0.40 0.46 0.51 0.50 0.48 0.47 0.44 0.41 0.41 0.40 0.36 0.35 0.38 0.44 0.49 0.52 0.54 0.64 0.73 0.69 0.59 0.67 0.76 0.75 0.65 0.56 0.54 0.65 0.82 0.85 0.78 0.69 0.59 0.49 0.47 0.50 0.53 0.58 0.60 0.60 0.55 0.48 0.46 0.47
0.43 0.51 0.51 0.47 0.45 0.43 0.39 0.35 0.35 0.35 0.35 0.37 0.43 0.53 0.67 0.74 0.72 0.70 0.66 0.65 0.65 0.74 0.79 0.73 0.65 0.56 0.50 0.55 0.66 0.75 0.71 0.64 0.57 0.49 0.43 0.43 0.49 0.56 0.57 0.56 0.54 0.50 0.48 0.49
0.30 0.34 0.35 0.33 0.31 0.27 0.23 0.21 0.23 0.25 0.29 0.36 0.47 0.64 0.84 0.89 0.88 0.92 0.78 0.60 0.61 0.71 0.72 0.68 0.59 0.50 0.44 0.46 0.53 0.61 0.62 0.60 0.56 0.48 0.39 0.40 0.44 0.48 0.51 0.47 0.49 0.50 0.46 0.42
0.10 0.12 0.13 0.13 0.14 0.16 0.16 0.16 0.18 0.21 0.27 0.36 0.43 0.58 0.84 1.02 0.91 0.73 0.67 0.65 0.64 0.61 0.59 0.58 0.52 0.45 0.43 0.42 0.44 0.51 0.56 0.58 0.54 0.48 0.41 0.42 0.43 0.43 0.46 0.45 0.44 0.41 0.37 0.37
0.07 0.06 0.06 0.08 0.13 0.18 0.21 0.25 0.28 0.31 0.39 0.46 0.46 0.52 0.68 0.91 0.96 0.73 0.59 0.55 0.57 0.55 0.52 0.53 0.55 0.54 0.46 0.40 0.39 0.46 0.52 0.54 0.54 0.49 0.45 0.46 0.43 0.44 0.45 0.43 0.42 0.40 0.39 0.39
0.05 0.06 0.08 0.11 0.16 0.23 0.31 0.42 0.52 0.57 0.69 0.81 0.77 0.71 0.77 0.83 0.77 0.68 0.58 0.50 0.48 0.50 0.49 0.52 0.58 0.60 0.52 0.44 0.44 0.47 0.51 0.56 0.55 0.51 0.49 0.47 0.43 0.42 0.43 0.42 0.42 0.40 0.38 0.35
0.06 0.08 0.11 0.16 0.21 0.28 0.42 0.58 0.74 0.84 0.96 1.16 1.21 1.02 0.95 0.94 0.84 0.73 0.65 0.58 0.56 0.55 0.52 0.51 0.51 0.53 0.54 0.51 0.48 0.47 0.52 0.59 0.58 0.57 0.55 0.48 0.43 0.42 0.40 0.37 0.35 0.34 0.31 0.28